Theta_e
297 297 296 296 296 296 295 295 295 295 296 295 296 296 296 296 296 296 296 297 297 297 298 298 299 299 300 300 302 302 302 302 299 301 303 304 303 297 297 296 296 295 295
295 294 294 294 294 293 292 293 293 293 294 294 294 294 294 294 295 294 294 294 294 294 295 295 297 299 296 297 298 299 298 299 298 295 298 299 299 300 297 294 293 292 290
294 293 292 292 291 291 291 292 292 291 292 292 292 292 292 293 292 293 293 293 292 293 294 294 294 294 292 292 293 295 295 296 296 294 294 296 297 293 290 288 287 287 288
293 292 290 289 290 290 290 290 290 290 290 289 290 290 290 290 290 291 290 289 289 290 291 292 292 291 290 290 291 290 291 292 292 292 292 293 294 292 285 285 287 285 285
290 289 289 289 289 288 287 287 287 286 287 287 287 286 287 288 289 289 287 287 286 287 287 288 289 289 289 291 289 289 289 288 289 289 289 290 290 291 285 286 284 285 283
288 287 287 286 285 284 284 284 284 284 284 284 284 284 284 287 290 290 289 286 285 284 285 286 287 285 287 290 290 290 290 287 286 286 287 286 287 288 287 286 286 281 280
284 284 284 284 283 283 283 283 283 283 283 283 283 283 283 283 288 289 289 286 284 284 284 285 285 286 286 287 288 290 289 289 290 287 285 286 285 286 287 285 283 282 281
284 283 282 283 281 282 282 282 282 282 282 282 282 281 281 282 287 288 288 285 284 283 284 284 285 285 286 286 286 285 285 285 286 286 286 286 286 286 285 284 283 281 282
282 282 282 281 279 279 277 279 280 280 279 278 280 278 277 281 286 287 287 284 283 284 284 285 285 285 287 288 285 283 283 284 287 289 288 289 289 288 286 284 281 279 278
281 281 280 280 276 276 279 278 278 277 281 281 280 279 278 279 284 287 287 283 283 283 284 285 285 287 287 287 284 283 282 284 284 284 284 284 284 283 283 282 284 279 278
280 279 277 277 275 276 276 275 274 276 278 278 279 279 277 278 280 287 288 285 283 283 283 283 285 286 286 286 288 285 283 286 285 281 282 280 279 278 278 278 278 279 278
275 274 271 269 272 275 269 271 272 273 275 277 274 279 280 277 281 286 287 287 286 283 283 284 284 285 286 287 286 287 287 285 283 281 279 277 276 275 275 275 275 275 276
268 267 267 268 270 270 268 271 270 269 272 276 277 277 278 280 279 284 285 286 286 284 284 284 286 286 287 286 287 286 284 283 279 278 277 276 277 277 277 275 275 274 273
265 266 268 268 269 267 271 273 268 268 273 274 275 275 276 277 278 279 281 283 284 285 284 284 284 286 286 285 284 283 282 280 279 278 278 278 278 276 275 275 273 272 270
267 268 267 268 265 269 271 271 273 272 273 274 275 275 275 275 277 281 282 282 283 285 284 280 282 281 280 280 278 277 279 279 279 280 278 274 275 275 274 273 274 272 269
265 267 266 266 265 268 269 269 274 276 278 278 279 278 277 280 281 282 283 284 285 286 284 277 279 282 280 279 277 277 277 277 278 277 276 275 273 272 273 273 272 269 267
259 262 262 265 264 264 266 266 266 269 274 275 276 277 278 279 280 281 282 284 285 286 283 281 281 281 279 278 277 276 274 274 274 275 273 272 273 272 271 270 270 268 266
255 261 259 260 260 260 261 264 264 264 264 266 271 273 276 278 279 280 282 284 281 283 283 281 281 279 278 276 275 274 272 271 269 269 270 270 270 270 268 267 267 265 264
257 257 257 258 258 260 262 263 264 264 265 265 267 270 271 275 277 278 281 279 280 281 276 278 278 277 275 275 274 272 270 268 265 265 267 267 266 267 265 264 265 264 263
255 260 259 257 258 258 261 262 263 263 264 264 265 266 268 270 270 272 275 279 280 276 277 276 275 274 273 272 271 268 267 266 265 265 265 266 264 266 265 263 261 261 258
255 256 259 257 256 257 261 262 263 263 264 264 265 267 273 272 271 272 275 272 275 275 275 273 272 271 271 270 269 268 266 264 263 263 263 262 261 262 261 262 259 258 257
254 254 255 255 258 261 260 262 262 263 263 264 265 267 273 270 271 273 267 268 270 270 271 271 270 269 269 268 267 266 264 262 261 260 261 260 260 260 260 259 258 254 251
256 256 256 255 256 259 259 259 261 263 263 264 265 267 269 270 268 265 264 265 266 266 267 267 266 264 265 264 265 265 263 261 261 260 260 259 259 259 258 258 255 251 251
255 256 255 254 254 255 256 259 260 261 262 263 264 266 266 264 263 259 260 263 264 264 264 264 264 263 262 261 261 261 261 259 260 260 260 260 259 259 257 253 252 251 251
253 254 253 253 253 254 255 256 259 259 261 261 262 263 263 261 260 257 259 261 262 262 262 262 262 262 260 260 260 260 262 261 258 259 259 259 258 257 255 255 253 251 249
252 252 251 252 252 252 252 255 257 258 259 260 261 261 261 259 259 258 259 260 262 262 262 262 261 261 261 260 260 261 259 260 258 259 258 258 257 255 254 253 253 250 248
Wind_Speed
8 7 8 7 7 7 7 6 6 6 6 6 6 7 7 6 6 6 6 6 6 7 6 7 8 6 6 5 6 8 9 9 13 21 12 12 12 6 5 8 7 8 6
7 8 8 8 7 7 7 7 6 6 6 6 6 6 6 6 6 6 7 6 7 9 9 8 10 7 8 7 7 11 11 11 11 20 17 13 12 13 7 6 5 4 4
8 8 8 8 7 7 7 6 6 6 6 6 6 6 6 6 6 6 5 6 8 9 10 10 11 10 10 8 9 11 10 10 11 13 17 13 13 4 4 4 4 3 3
8 8 7 7 7 6 6 6 6 5 5 5 5 5 6 6 7 6 7 8 9 9 10 10 11 10 10 11 12 14 12 10 11 10 13 13 11 6 2 3 6 3 2
8 7 6 6 6 5 4 5 5 5 5 5 5 6 5 6 5 6 7 8 10 11 11 11 11 11 14 14 11 13 13 12 10 10 11 11 11 9 6 2 4 1 1
7 7 5 6 5 6 6 6 5 5 5 5 6 5 7 7 14 16 13 9 9 11 13 13 11 10 12 17 23 24 20 15 13 10 11 12 13 9 4 5 6 2 1
8 6 5 5 5 5 5 5 5 5 5 6 6 6 7 7 16 17 17 10 10 11 12 13 13 8 10 16 20 21 18 19 20 15 15 13 14 10 9 9 4 2 2
7 5 4 4 4 4 4 5 5 4 5 6 7 7 7 8 17 19 18 10 9 11 11 11 15 16 15 15 15 15 13 11 12 10 12 13 11 9 8 2 2 4 5
6 5 4 3 2 3 4 5 5 4 5 4 5 6 6 11 17 20 17 10 11 14 13 15 13 14 16 21 15 16 14 12 10 17 15 15 10 7 1 2 4 5 3
4 3 2 2 3 3 4 5 3 3 8 6 9 7 8 10 15 18 14 6 14 13 14 14 17 14 20 23 14 13 13 9 5 3 3 7 11 12 16 7 1 4 4
2 1 2 2 3 4 5 3 3 6 7 8 10 10 7 7 10 15 14 10 9 12 13 13 8 19 22 22 21 7 9 9 2 2 4 5 7 8 8 8 9 5 4
2 2 2 2 3 3 3 4 5 6 6 8 7 10 6 5 8 11 16 20 18 9 12 10 10 21 22 20 14 14 5 2 1 3 5 5 6 6 7 8 10 10 10
3 3 3 4 3 3 3 5 3 3 4 8 8 10 12 8 5 14 18 20 16 9 8 14 23 21 16 7 8 5 4 2 3 4 4 4 4 4 4 5 7 9 12
4 4 3 3 4 4 2 3 2 3 6 8 9 10 12 12 10 7 8 10 13 11 10 8 11 12 5 4 3 4 3 3 3 4 3 4 3 3 4 2 3 5 7
3 3 3 2 3 5 4 4 6 4 5 9 9 10 12 15 12 20 22 14 11 12 10 4 5 4 2 0 2 3 3 3 2 3 4 3 4 4 3 2 3 5 6
2 1 1 2 2 4 7 9 10 16 17 19 21 18 12 24 34 32 30 30 28 25 9 3 5 5 3 2 2 2 3 3 2 3 3 3 3 3 3 4 5 5 6
1 2 2 3 2 3 6 7 13 11 17 17 17 21 24 28 30 32 32 29 27 21 8 6 6 4 3 3 2 2 1 2 2 3 3 3 3 3 4 3 4 5 5
2 3 2 2 2 2 2 6 7 9 14 11 11 19 23 27 29 30 29 24 10 9 7 6 5 4 4 3 3 3 3 2 3 3 3 2 2 3 3 3 3 4 5
1 1 1 2 2 3 4 6 7 9 10 12 12 14 14 24 28 28 27 10 10 7 3 3 3 4 4 4 4 3 4 3 2 2 2 2 2 3 4 3 4 5 5
1 3 1 1 2 2 4 6 7 8 9 10 10 12 12 13 11 11 12 10 9 3 4 4 4 4 4 5 4 4 4 3 3 3 2 3 2 3 4 4 3 4 2
1 2 3 2 2 3 4 6 7 8 10 10 11 12 26 15 12 11 12 4 3 3 3 3 5 4 4 5 5 4 4 3 3 3 3 2 3 3 3 4 4 4 4
1 2 2 2 2 4 4 6 7 9 10 11 12 12 26 11 10 8 4 3 4 3 2 1 2 3 4 5 5 5 5 4 3 3 4 3 3 4 3 4 4 3 3
1 2 3 2 3 5 4 4 7 8 10 11 12 11 10 7 9 5 4 3 3 3 3 3 3 2 2 3 3 4 5 4 4 4 5 4 4 4 3 4 4 3 2
2 2 2 3 3 3 4 5 7 9 9 10 11 10 9 8 7 5 3 2 2 3 3 3 3 3 2 2 3 3 4 3 3 4 6 5 4 4 4 3 3 3 3
1 2 2 2 3 3 3 4 6 7 8 8 9 9 9 6 5 4 3 3 2 2 3 3 3 3 3 3 4 4 5 6 4 4 4 5 6 6 4 3 3 3 2
1 2 2 3 3 3 3 4 5 6 7 8 7 7 7 5 5 4 3 3 2 2 3 2 2 3 4 3 4 5 6 6 5 5 4 4 5 4 3 4 5 3 4
Wind_Direction
78 76 74 67 62 62 64 56 45 39 27 23 13 5 2 358 354 349 335 321 325 311 309 304 298 293 291 283 283 286 282 275 277 290 290 291 290 256 246 238 248 252 255
82 76 70 69 65 59 53 49 37 32 24 18 11 4 354 349 343 339 329 322 318 313 306 299 294 295 287 285 284 285 284 282 277 280 289 292 287 289 274 255 252 250 255
80 75 67 63 61 54 42 38 32 21 17 13 9 358 344 335 324 314 311 321 314 306 302 298 298 300 296 291 287 287 285 285 282 281 288 292 292 285 266 245 252 262 254
91 86 76 63 59 53 40 31 24 7 10 7 353 336 327 320 316 311 328 318 307 299 292 287 287 284 283 294 296 292 288 281 278 276 281 287 291 304 260 266 269 204 261
91 84 77 74 64 58 46 28 12 6 355 344 330 324 315 313 303 311 306 300 297 298 291 285 280 273 265 274 292 288 289 288 282 281 279 286 288 285 264 233 249 241 221
88 83 78 74 60 42 26 7 352 348 335 325 314 300 305 307 310 308 307 298 292 291 294 293 286 273 275 281 295 290 285 287 282 279 282 280 283 279 262 251 259 211 258
96 88 75 63 45 24 0 346 333 321 311 301 296 295 292 285 301 304 303 295 295 293 291 297 301 301 295 306 305 299 294 289 284 287 283 281 286 289 288 274 225 158 127
105 97 74 50 28 355 335 322 312 296 301 298 299 295 292 297 305 308 307 301 292 291 292 295 303 309 308 305 302 301 298 291 281 274 268 279 281 282 266 257 143 93 84
86 74 41 8 329 307 309 305 306 294 301 284 289 289 281 299 309 311 315 312 307 307 305 308 305 301 301 308 306 306 303 293 283 287 298 298 308 316 249 103 102 112 82
88 60 4 293 287 299 294 300 273 284 299 300 297 287 278 283 297 302 308 302 311 312 309 306 303 300 315 312 306 294 291 304 313 305 2 23 33 39 45 40 109 107 113
78 355 327 317 298 275 293 294 297 306 303 301 298 293 269 264 280 293 307 313 307 309 312 311 309 317 314 308 307 304 297 300 4 48 50 47 40 38 36 39 41 39 83
66 2 329 300 306 321 311 301 303 292 289 298 288 297 289 260 278 298 304 311 307 303 307 306 307 309 308 313 316 304 333 72 44 61 62 50 51 48 45 52 54 59 57
52 15 339 334 317 295 306 293 293 289 289 303 303 307 309 310 284 296 300 302 302 290 292 295 305 307 317 336 3 3 355 356 65 76 72 70 72 90 88 75 72 72 62
48 359 329 332 323 309 293 275 277 292 303 308 315 309 307 303 304 306 300 302 299 285 274 278 286 301 299 338 324 7 9 39 83 94 91 72 67 53 64 34 81 87 70
35 336 326 345 330 313 299 304 304 272 281 301 297 293 300 298 297 300 304 300 295 286 289 242 282 258 236 209 357 10 17 26 71 91 96 90 79 71 59 2 46 55 76
28 354 319 298 322 323 317 316 311 305 307 304 299 295 290 288 298 302 301 298 296 288 279 226 263 238 187 166 140 76 35 25 38 69 79 85 96 97 86 64 71 83 96
162 307 325 325 306 326 334 324 318 319 311 308 309 307 302 298 300 300 299 295 292 288 261 239 245 200 159 138 122 109 121 19 29 60 74 81 94 92 93 84 89 94 84
203 273 262 294 326 324 295 305 303 305 313 315 312 309 304 304 306 306 303 303 285 261 249 225 211 163 159 153 145 140 117 81 66 70 69 72 84 109 98 93 102 112 113
105 260 247 272 286 282 292 289 287 294 297 302 312 310 305 310 312 311 309 294 280 260 188 161 150 146 137 133 134 122 121 113 110 102 80 88 92 113 102 96 99 105 120
266 289 296 248 258 269 280 287 294 296 299 298 303 303 310 308 305 309 306 298 297 234 172 158 143 137 142 140 134 134 126 122 115 105 102 97 75 99 117 122 116 119 102
264 323 306 307 279 263 280 288 292 295 294 296 294 295 299 307 308 299 296 308 327 306 304 157 147 139 137 135 133 141 125 121 119 120 119 101 96 105 100 99 106 102 113
269 260 272 264 267 281 279 288 295 295 293 296 299 298 302 301 297 312 315 326 333 336 352 101 120 139 152 141 151 142 139 144 138 126 122 112 108 110 110 113 107 105 116
328 308 295 296 281 283 288 291 302 301 301 302 297 296 306 320 322 319 319 326 332 340 1 44 86 78 46 80 89 134 147 164 162 146 143 131 133 123 122 130 132 115 120
261 256 260 268 285 292 286 299 301 302 310 308 309 310 316 320 315 312 318 335 5 4 21 46 65 96 85 47 66 74 96 99 111 143 138 140 139 130 129 124 130 127 131
260 277 283 282 280 277 292 291 301 313 309 311 316 319 319 319 320 322 331 350 25 28 32 48 62 94 86 97 94 108 114 111 110 112 112 122 133 139 134 128 134 130 118
249 279 277 273 277 289 276 287 302 304 304 310 318 319 312 322 320 323 337 355 14 23 28 28 70 96 108 97 113 124 129 129 122 126 115 123 135 135 134 138 148 143 147